Location: Earls Croome
(52.0667°N, 2.2000°W)
Time: 11:41:28
(UTC+00:00)

Meteor 1-11 - Pass Details

Date: 17 November 2019
Orbit: 842 x 885 km, 81.2° (Epoch: 11 December)

Event Time Altitude Azimuth Distance (km) Brightness Sun altitude
Exits shadow 04:38:02 57° 328° (NNW) 1,031 4.4 -26.4°
Drops below altitude 10° 04:42:59 10° 9° (N) 2,559 6.8 -25.6°
Sets 04:45:29 0° 12° (NNE) 3,504 7.6 -25.2°
